Powrót do katalogu

COSMOS 2251 DEB

AktywnyLEO
NORAD 34758·DEBRIS·🇷🇺 Russia

Wystrzelony Jun 16, 1993 z Plesetsk Cosmodrome

Loading…

Następne Przeloty (najbliższe 24 godziny)

TLE

ŚwieżeSource: Space-Track

Epoka: Sep 14, 2026, 07:56 UTC

1 34758U 93036AAC 26257.33100601  .00000411  00000-0  36392-3 0  9996
2 34758  74.1053 215.5997 0387383 275.7685  79.9394 13.58653489866529

Śledź COSMOS 2251 DEB w czasie rzeczywistym z AllMySat

Download on the App Store